Info for pilots

Image

Airfield Info:

EBUL
N51 08.7 - E003 28.6
ELEV 95' / 29m
RWY 07 / 25
799m * 45m (CIV) - 2980m (MIL)
Ursel Radio 135.125
Tel Aero Club Brugge : +32(0)9 374 25 75
Tel Vliegclub Ursel : +32(0)9 374 12 90

Operational Hours
FRI: 14h00LT - SS+30 MIN
SAT, SUN and HOL: TKOF and LDG: 10h00LT - SS+30 MIN
After 20h00LT to SS+30 MIN: only LDG allowed (PN)

Local Traffic Regulations
The use of the AD is subject to PPR from the OPR;
AD given in concession to the CIV club outside MIL ACT;
Solo training flights can only be performed after two reconnaissance flights with instructor. The solo training flight must be performed within six weeks after the first reconnaissance flight;
Jet aircraft operations not allowed.

Obstacles:
trees between 10M AGL and 22M AGL, caution when crosswind:
North of the RWY, 75M from CL, along the whole length of the RWY;
South of the RWY, 75M from CL, and at THR RWY 25 from THR RWY 07 to 140M east of THR RWY 07



Image

Image

Watch out!

Flight Procedures
RWY 07 and 25 left hand circuit, 1.200 FT QNH

Image

Taxi procedures:
RWY 07 (TKOF):
taxi on the north side of the RWY to the HLDG position of RWY 07

RWY 07 (LDG):
after landing roll out to the second intersection (THR RWY 25), turn left, turn left again, taxi via the TWY to the first intersection, turn left, cross the RWY (check for landing ACFT), taxi on the south side of the RWY to the AD reporting office

RWY 25 (TKOF):
taxi on the north side of the first intersection, turn left, next turn right, taxi via the TWY to the second intersection, turn right, taxi to the HLDG of RWY 25

RWY 25 (LDG):
after landing roll out to the end of the RWY, taxi on the south side of the RWY to the AD reporting office.





Image

Taxi & Circuit?

Image
Image
Image
Image

Current Metars - Auto refresh

EBOS - Oostende
2018/11/16 05:20 EBOS 160520Z 17006KT 0500 R08/1200N R26/1400N FG BKN001 06/05 Q1025 NOSIG


EBAW - Antwerpen
2018/11/16 05:20 EBAW 160520Z AUTO 14004KT 1300 R11/1800N R29/1800U // OVC002/// 06/02 Q1026


EBBR - Brussel
2018/11/16 05:20 EBBR 160520Z 19003KT 0800 R25L/1800D R25R/P2000N R01/1500N FG BKN002 05/05 Q1026 NOSIG

Source : NOAA.GOV

Current TAFs - Auto refresh

EBOS - Oostende
2018/11/16 06:27 TAF EBOS 160500Z 1606/1712 13006KT 1500 BR BKN004 TEMPO 1606/1610 0350 FG BKN001 TEMPO 1610/1617 6000 NSW BECMG 1618/1620 7000 NSW PROB30 TEMPO 1702/1706 1500 BR MIFG

EBAW - Antwerpen
2018/11/16 06:27 TAF TAF EBAW 160500Z 1606/1615 14003KT 3000 BR BKN004 PROB40 TEMPO 1607/1609 0500 FG BKN001 BECMG 1609/1611 6000 NSW

EBBR - Brussel
2018/11/16 06:27 TAF TAF EBBR 160500Z 1606/1712 14005KT 2500 BR BKN004 PROB40 TEMPO 1606/1610 0350 FG BKN001 TEMPO 1606/1609 6000 NSW BECMG 1610/1612 7000 NSW

Source : NOAA.GOV
Image

Webcam

Direction runway 07 :